Skip Page Navigation
NASA JPL Caltech
NASA Logo - Jet Propulsion Laboratory + View the NASA Portal
+ Center for Near-Earth Object Studies
JPL Home Earth Solar System Stars & Galaxies Technology
JPL Solar System Dynamics
BODIES ORBITS EPHEMERIDES TOOLS PHYSICAL DATA DISCOVERY FAQ SITE MAP
IMPORTANT: The SSD Announcement email list is now available. Major changes are coming in the near future, including possible hostname and/or URL changes. To be notified of such changes, subscribe to this email list.

Please visit this page for more details.


JPL Small-Body Database Browser
Search: [ help ]  
437597 (2014 BE2)
Classification: Main-belt Asteroid          SPK-ID: 2437597
Ephemeris | Orbit Diagram | Orbital Elements | Mission Design | Physical Parameters | Discovery Circumstances ]

[ show orbit diagram ]
Orbital Elements at Epoch 2458600.5 (2019-Apr-27.0) TDB
Reference: JPL 14 (heliocentric ecliptic J2000)
 Element Value Uncertainty (1-sigma)   Units 
e .03725391495759633 8.2596e-08  
a 2.76887097655131 9.0768e-08 au
q 2.66571969266231 2.5817e-07 au
i 3.466654611619655 9.4631e-06 deg
node 300.2203169524921 0.00020724 deg
peri 345.2019976325517 0.00028153 deg
M 249.969917544384 0.00018417 deg
tp 2459114.853196394846
(2020-Sep-22.35319639)
0.00085306 TDB
period 1682.877505584323
4.61
8.2751e-05
2.266e-07
d
yr
n .2139193130845266 1.0519e-08 deg/d
Q 2.872022260440309 9.4149e-08 au
  Orbit Determination Parameters
   # obs. used (total)      61  
   data-arc span      5606 days (15.35 yr)  
   first obs. used      2003-10-24  
   last obs. used      2019-02-28  
   planetary ephem.      DE431  
   SB-pert. ephem.      SB431-N16  
   condition code      0  
   norm. resid. RMS      .70096  
   source      ORB  
   producer      Otto Matic  
   solution date      2019-Jul-14 15:58:00  

Additional Information
 Earth MOID = 1.64887 au 
 Jupiter MOID = 2.19171 au 
 T_jup = 3.335 
[ show covariance matrix ]

Ephemeris | Orbit Diagram | Orbital Elements | Mission Design | Physical Parameters | Discovery Circumstances ]

Physical Parameter Table
Parameter Symbol Value Units Sigma Reference Notes
absolute magnitude H 17.0   n/a MPO428071  

437597 (2014 BE2)          Discovered 2012-Oct-22 by Mt. Lemmon Survey at Mount Lemmon
Reference: Last Updated: 2015-06-04
Ephemeris | Orbit Diagram | Orbital Elements | Mission Design | Physical Parameters | Discovery Circumstances ]
ABOUT SSD CREDITS/AWARDS PRIVACY/COPYRIGHT GLOSSARY LINKS
FirstGov 2019-Dec-14 08:59 UT
(server date/time)  
NASA Home Page
Site Manager:   Ryan S. Park
Webmaster  Alan B. Chamberlin